This demonstration page uses our WeatherBlox Daily Observations layout. Learn more.

Left ArrowRight Arrow

41.86663, -103.66717

Hourly Observations for September 15, 2020

Temp ( °F °C ) Dew Point ( °F °C ) Humidity (%) Winds ( mph kmh ) Pressure ( in mb ) Visibility ( mi km ) Precip ( " mm )
12:53 am 00:53 Clear 60 15.6 43 6.1 53 53 ENE 7 11 30.02 1017 10 16.0934 0 0
1:53 am 01:53 Clear 56 13.3 42 5.6 60 60 E 7 11 30.02 1017 10 16.0934 0 0
2:53 am 02:53 Clear 54 12.2 41 5 62 62 Calm 30.01 1016 10 16.0934 0 0
3:53 am 03:53 Clear 49 9.4 43 6.1 80 80 NNW 7 11 30.02 1017 10 16.0934 0 0
4:53 am 04:53 Clear 48 8.9 43 6.1 83 83 Calm 30.02 1017 10 16.0934 0 0
5:53 am 05:53 Clear 45 7.2 42 5.6 90 90 undefined N/A 30.04 1017 10 16.0934 0 0
6:53 am 06:53 Sunny 44 6.7 41 5 89 89 WNW 6 9 30.07 1018 10 16.0934 0 0
7:53 am 07:53 Sunny 50 10 44 6.7 80 80 WNW 6 9 30.08 1019 10 16.0934 0 0
8:53 am 08:53 Sunny 60 15.6 44 6.7 56 56 WNW 8 13 30.07 1018 10 16.0934 0 0
9:53 am 09:53 Sunny 68 20 43 6.1 40 40 WNW 8 13 30.05 1018 10 16.0934 0 0
10:53 am 10:53 Sunny 76 24.4 38 3.3 25 25 WNW 8 13 30.03 1017 10 16.0934 0 0
11:53 am 11:53 Sunny 82 27.8 35 1.7 18 18 W 9 15 30 1016 10 16.0934 0 0
12:53 pm 12:53 Sunny 85 29.4 37 2.8 18 18 W 7 11 29.98 1015 10 16.0934 0 0
1:53 pm 13:53 Sunny 89 31.7 38 3.3 16 16 WSW 6 9 29.97 1015 10 16.0934 0 0
2:53 pm 14:53 Sunny 92 33.3 29 -1.7 10 10 WSW 6 9 29.95 1014 10 16.0934 0 0
3:53 pm 15:53 Sunny 92 33.3 32 0 12 12 W 7 11 29.94 1014 10 16.0934 0 0
4:53 pm 16:53 Sunny 91 32.8 26 -3.3 9 9 W 7 11 29.94 1014 10 16.0934 0 0
5:53 pm 17:53 Sunny 86 30 31 -0.6 14 14 SW 5 7 29.96 1014 10 16.0934 0 0
6:53 pm 18:53 Sunny 76 24.4 42 5.6 30 30 Calm 29.99 1016 9 14.48406 0 0
7:53 pm 19:53 Clear 67 19.4 42 5.6 41 41 NNE 7 11 30.01 1016 10 16.0934 0 0
8:53 pm 20:53 Clear 65 18.3 39 3.9 39 39 NW 6 9 30.01 1016 10 16.0934 0 0
9:53 pm 21:53 Clear 65 18.3 38 3.3 37 37 Calm 30.02 1017 10 16.0934 0 0
10:53 pm 22:53 Clear 65 18.3 43 6.1 45 45 NNW 7 11 30.01 1016 10 16.0934 0 0
11:53 pm 23:53 Clear 67 19.4 46 7.8 47 47 NNE 9 15 30.01 1016 10 16.0934 0 0

Powered by AerisWeather